Zurück zum Katalog

PROBA-3 OSC

AktivWissenschaftHEO
NORAD 62258·PAYLOAD·🇪🇺 EU

Gestartet Dec 5, 2024 von Satish Dhawan Space Centre

Loading…

Nächste Überflüge (nächste 24 Stunden)

TLE

AktuellSource: Space-Track

Epoche: Sep 11, 2026, 07:24 UTC

1 62258U 24233C   26254.30850200 -.00000080  00000-0  00000-0 0  9993
2 62258  59.7761  90.3075 7995214 207.9102  63.0560  1.22078118  7863

Verfolge PROBA-3 OSC in Echtzeit mit AllMySat

Download on the App Store